PEGASUS R/B(2)

基本信息
目录编号:
25484
目录名称:
PEGASUS R/B(2)
国际标识:
1998-053K
轨道中心:
EARTH
物体状态:
在轨
发射日期:
1998-09-23 UTC
国别:
美国 (US)
轨道信息
数据来源: 国际轨道数据
星历时间: 2026-09-14T06:22:55+0800
半长轴: 7124.909km
偏心率: 0.0063213
轨道倾角: 44.529°
近地点辐角: 234.817°
升交点赤经: 122.028°
平近点角: 139.684°
近地点: 701.733km
远地点: 791.811km
周期: 99.754分钟
每日圈数: 14.435566
详细信息
发射场:
ERAS
轨道高度:
LEO
数据来源:
AOE Integration Group
参考系:
TEME
时间系统:
UTC
历元类型:
SGP4
2D轨道图
3D轨道图
轨道高度分析图
轨道倾角分析图
轨道综合分析图
查看轨道综合分析图